Location: Marcé
(47.5801°N, 0.3280°W)
Time: 18:53:05
(UTC+02:00)

RAPIDEYE 2 - Pass Details

Date: 04 July 2022
Orbit: 570 x 584 km, 97.6° (Epoch: 10 August)

Event Time Altitude Azimuth Distance (km) Brightness Sun altitude
Exits shadow 23:01:20 - 173° (S) 2,228 ? -8.3°
Reaches altitude 10° 23:02:12 10° 175° (S) 1,867 ? -8.4°
Maximum altitude 23:06:13 68° 258° (WSW) 620 ? -8.9°
Drops below altitude 10° 23:10:18 10° 342° (NNW) 1,885 ? -9.3°
Sets 23:12:28 0° 345° (NNW) 2,789 ? -9.6°
